Weather observations for the past three days for
City of Colorado Springs Municipal Airport
Imperial (Metric)
Date Time (mdt) Wind (mph) Vis. (mi.) Weather Sky Cond. Temperature (ºF) Relative Humidity Wind Chill (°F) Heat Index (°F) Pressure Precipitation (in)
Air Dwpt 6 hour altimeter (in) sea level (mb) 1 hr 3 hr 6 hr
Max. Min.
22 09:54 S 7 10.00 Mostly Cloudy SCT150 BKN240 73 46 38% 30.26 1015.4
22 08:54 S 9 10.00 Mostly Cloudy SCT150 BKN240 70 48 46% 30.25 1015.3
22 07:54 SE 7 10.00 Mostly Cloudy SCT150 BKN250 68 46.9 47% 30.22 1014.1
22 06:54 SW 3 10.00 Mostly Cloudy SCT150 BKN250 64.9 48 54% 30.21 1013.9
22 05:54 N 6 10.00 Mostly Cloudy SCT150 BKN250 62.1 46 73.9 61 56% 30.18 1013.0
22 04:54 W 3 10.00 Overcast OVC200 62.1 51.1 67% 30.18 1012.2
22 03:54 Vrbl 5 10.00 Overcast OVC200 64 48 56% 30.16 1011.8
22 02:54 NE 5 10.00 Overcast FEW120 OVC200 64.9 50 59% 30.17 1013.2
22 01:54 NE 14 G 18 10.00 Overcast FEW120 OVC200 64 51.1 63% 30.17 1011.5
22 00:54 N 15 G 25 10.00 Mostly Cloudy FEW080 BKN120 BKN200 69.1 53.1 57% 30.18 1011.7
21 23:54 NW 10 G 22 10.00 Mostly Cloudy FEW080 SCT120 BKN200 73.9 46 82.9 72 37% 30.17 1011.3
21 22:54 W 10 10.00 Mostly Cloudy FEW080 BKN120 BKN200 73.9 46.9 38% 30.17 1011.3
21 21:54 S 14 10.00 Mostly Cloudy FEW100 BKN150 BKN200 72 48 43% 30.16 1011.4
21 20:54 S 16 10.00 Mostly Cloudy FEW100 SCT150 BKN220 73 48.9 43% 30.12 1010.6
21 19:54 S 15 G 22 10.00 Mostly Cloudy FEW100 SCT150 BKN230 77 48.9 37% 78 30.11 1009.6
21 18:54 W 3 10.00 Mostly Cloudy FEW100 SCT160 BKN230 79 48 34% 79 30.1 1009.3
21 17:54 SW 9 10.00 Mostly Cloudy FEW110 SCT170 BKN250 82 44.1 89.1 70 26% 80 30.09 1009.4 0.03
21 16:54 S 9 10.00 Mostly Cloudy FEW110 SCT170 BKN250 84.9 43 23% 82 30.1 1009.6
21 15:54 N 9 10.00 Mostly Cloudy FEW110 SCT170 BKN250 82.9 51.1 33% 81 30.12 1010.6
21 14:54 NW 20 G 35 10.00 Light Rain SCT110 BKN200 72 54 53% 30.15 1013.1 0.03 0.03
21 13:54 NE 3 10.00 Partly Cloudy SCT100 SCT200 87.1 44.1 22% 84 30.12 1009.8
21 12:54 SE 12 10.00 Partly Cloudy SCT100 SCT230 84.9 43 23% 82 30.13 1010.3
21 11:54 S 8 10.00 Partly Cloudy FEW090 FEW140 SCT240 82 44.1 84 63 26% 80 30.16 1011.3
21 10:54 NE 8 10.00 Partly Cloudy FEW090 SCT140 SCT240 80.1 46.9 31% 79 30.16 1011.6
21 09:54 N 8 10.00 Partly Cloudy FEW070 SCT140 SCT240 77 46.9 35% 78 30.15 1011.3
21 08:54 SE 15 10.00 Mostly Cloudy FEW070 BKN140 BKN240 73 48 41% 30.15 1011.6
21 07:54 SE 5 10.00 Mostly Cloudy FEW047 BKN075 BKN130 BKN240 72 48.9 44% 30.17 1011.9
21 06:54 W 16 G 24 10.00 Mostly Cloudy FEW060 BKN075 BKN100 BKN130 BKN240 71.1 44.1 38% 30.18 1012.0
21 05:54 S 10 10.00 Mostly Cloudy FEW075 BKN140 BKN240 63 48 68 61 58% 30.2 1013.2
21 04:54 SE 5 10.00 Mostly Cloudy BKN120 BKN250 63 48.9 60% 30.19 1013.2
21 03:54 N 3 10.00 Mostly Cloudy FEW090 BKN250 63 48 58% 30.19 1012.8
21 02:54 N 9 10.00 Mostly Cloudy FEW120 BKN240 62.1 48.9 62% 30.19 1013.2
21 01:54 E 9 10.00 Partly Cloudy FEW120 SCT240 64.9 48 54% 30.21 1013.9
21 00:54 N 12 10.00 Mostly Cloudy FEW120 BKN240 66 50 56% 30.22 1014.5
20 23:54 NW 6 10.00 Mostly Cloudy SCT120 BKN240 68 52 82 66.9 57% 30.23 1015.2
20 22:54 SE 8 10.00 Mostly Cloudy SCT120 BKN240 70 52 53% 30.21 1014.7
20 21:54 SE 9 10.00 Mostly Cloudy FEW090 FEW140 BKN240 72 50 46% 30.19 1013.7
20 20:54 SE 8 10.00 Mostly Cloudy FEW090 SCT140 BKN210 73 50 44% 30.17 1013.1
20 19:54 S 8 10.00 Mostly Cloudy FEW085 SCT140 BKN210 77 46.9 35% 78 30.16 1012.7
20 18:54 SW 12 10.00 Mostly Cloudy FEW080 SCT130 BKN210 80.1 43 27% 79 30.16 1012.9
20 17:54 SW 15 10.00 Mostly Cloudy FEW080 SCT130 BKN210 82 46.9 82.9 70 29% 80 30.15 1012.3
20 16:54 S 17 G 26 10.00 Thunderstorm in Vicinity SCT070CB BKN100 BKN210 81 55 41% 81 30.16 1012.9
20 15:54 S 14 G 20 10.00 Mostly Cloudy FEW050 SCT080 BKN210 82 54 38% 81 30.18 1013.3
20 14:54 S 14 G 25 10.00 Partly Cloudy FEW050 SCT080 SCT250 81 53.1 38% 80 30.22 1014.8
20 13:54 S 21 G 31 10.00 Partly Cloudy and Breezy FEW035 FEW080 SCT230 79 51.1 38% 79 30.25 1016.0
20 12:54 S 15 G 29 10.00 Partly Cloudy FEW030 SCT060 SCT200 73.9 57.9 57% 30.29 1018.0
20 11:54 S 15 10.00 Partly Cloudy FEW017 SCT200 70 57 70 55.9 64% 30.31 1019.4
20 10:54 S 17 10.00 Mostly Cloudy SCT013 SCT050 BKN190 66.9 57.9 73% 30.31 1019.8
20 09:54 S 15 10.00 Partly Cloudy FEW010 SCT150 SCT230 64.9 57 76% 30.31 1020.0
20 08:54 SE 14 10.00 Partly Cloudy FEW008 SCT150 SCT230 64 55.9 75% 30.31 1020.3
20 07:54 S 8 10.00 Mostly Cloudy FEW008 FEW070 BKN120 BKN220 60.1 55.9 86% 30.32 1021.7
20 06:54 SE 5 10.00 Mostly Cloudy SCT008 SCT070 BKN120 57 55 93% 30.3 1021.2
20 05:54 SE 5 10.00 Mostly Cloudy FEW003 FEW070 SCT130 BKN190 55.9 55 59 55 97% 30.27 1020.7 0.07
20 04:54 E 8 10.00 Mostly Cloudy SCT003 BKN080 BKN100 55.9 55.9 100% 30.26 1020.4
20 03:54 S 14 8.00 Mostly Cloudy SCT001 BKN100 BKN110 57 57 100% 30.3 1021.2
20 02:54 E 8 8.00 Mostly Cloudy FEW003 BKN050 BKN090 57.9 57 97% 30.27 1019.8 0.06 0.07
20 01:54 S 13 3.00 Light Rain Fog/Mist BKN002 57.9 57.9 100% 30.3 1021.4 0.01
20 00:54 SE 10 8.00 Overcast BKN005 OVC009 57.9 57 97% 30.29 1020.8
19 23:54 NE 5 6.00 Fog/Mist OVC007 57.9 57 57.9 53.1 97% 30.3 1021.5 0.05
19 22:54 N 3 10.00 Overcast OVC006 57 55.9 96% 30.3 1022.1
19 21:54 NW 3 6.00 Fog/Mist OVC007 55.9 55 97% 30.29 1021.7
19 20:54 NW 3 6.00 Fog/Mist OVC008 55 54 96% 30.28 1021.5 0.05
19 19:54 SE 3 6.00 Fog/Mist FEW006 OVC014 54 53.1 97% 30.28 1021.5 0.03
19 18:54 SE 5 1.75 Light Rain Fog/Mist BKN006 OVC013 54 53.1 97% 30.27 1020.6 0.02
19 17:54 S 8 3.00 Light Rain Fog/Mist FEW003 BKN005 OVC012 54 53.1 55 52 97% 30.26 1020.2 0.01 0.01
19 16:54 S 12 2.00 Light Rain Fog/Mist OVC003 53.1 52 96% 30.27 1020.6
19 15:54 S 12 10.00 Overcast BKN008 BKN016 OVC021 54 52 93% 30.27 1020.3
19 14:54 S 13 10.00 Overcast BKN008 OVC012 55 51.1 87% 30.29 1021.0
19 13:54 SE 9 10.00 Overcast BKN007 OVC012 53.1 51.1 93% 30.3 1021.5
19 12:54 SE 10 3.00 Fog/Mist BKN007 OVC010 53.1 52 96% 30.32 1022.1
19 11:54 SE 9 1.50 Light Rain Fog/Mist BKN006 OVC013 52 51.1 55.9 51.1 97% 30.33 1022.9 0.02 0.1
19 10:54 E 9 2.00 Light Rain Fog/Mist BKN006 OVC009 51.1 50 96% 30.34 1023.1 0.02
Date Time (mdt) Wind (mph) Vis. (mi.) Weather Sky Cond. Air Dwpt Max. Min. Relative Humidity Wind Chill (°F) Heat Index (°F) altimeter (in) sea level (mb) 1 hr 3 hr 6 hr
6 hour
Temperature (ºF) Pressure Precipitation (in)